Weather History for Hermosillo, Mexico

Change the Weather History Date:

Tuesday, August 20, 2013

  Actual Average Record
Temperature  
Mean Temperature 88 °F -  
Max Temperature 104 °F 98 °F 111 °F (1998)
Min Temperature 72 °F 76 °F 72 °F (2013)
Cooling Degree Days 23    
Growing Degree Days 38 (Base 50)    
Moisture  
Dew Point 69 °F    
Average Humidity 51    
Maximum Humidity 79    
Minimum Humidity 20    
Precipitation  
Precipitation 0.00 in - - ()
Sea Level Pressure  
Sea Level Pressure 29.80 in    
Wind  
Wind Speed 4 mph ()    
Max Wind Speed 14 mph    
Max Gust Speed -    
Visibility 9.0 miles    
Events      
Averages and records for this station are not official NWS values.
T = Trace of Precipitation, MM = Missing Value Source: Averaged Metar Reports

Daily Weather History Graph

Daily Weather History Graph

Search for Another Location

Airport:

Trip Planner

Search our weather history database for the weather conditions in past years. The results will help you decide how hot, cold, wet, or windy it might be!

Date:

Astronomy

Aug. 20, 2013 Rise Set
Actual Time 6:55 AM MDT 7:58 PM MDT
Civil Twilight 6:31 AM MDT 8:23 PM MDT
Nautical Twilight 6:01 AM MDT 8:52 PM MDT
Astronomical Twilight 5:31 AM MDT 9:22 PM MDT
Moon 7:38 PM MDT (8/20) 6:27 AM MDT (8/20)
Length of Visible Light 13h 52m
Length of Day
13h 02m
Full, 100% of the Moon is Illuminated
Aug 20
Full
Aug 20
Full
Aug 28
Last Quarter
Sep 5
New
Sep 12
First Quarter

Hourly Weather History & Observations

Time (MDT) Temp. Heat Index Dew Point Humidity Pressure Visibility Wind Dir Wind Speed Gust Speed Precip Events Conditions
12:45 AM 82.4 °F 87.2 °F 71.6 °F 70% 29.86 in 10.0 mi East 13.8 mph - N/A   Overcast
1:41 AM 82.4 °F 87.2 °F 71.6 °F 70% 29.85 in 10.0 mi North 6.9 mph - N/A   Overcast
2:40 AM 80 °F - 70 °F 65% 29.79 in 5 mi North 2.2 mph - -   Mostly Cloudy
2:42 AM 84.2 °F 88.4 °F 69.8 °F 62% 29.81 in 10.0 mi North 5.8 mph - N/A   Overcast
3:41 AM 82.4 °F 88.2 °F 73.4 °F 74% 29.84 in 10.0 mi South 4.6 mph - N/A   Overcast
4:44 AM 80.6 °F 85.4 °F 73.4 °F 79% 29.85 in 10.0 mi SSE 5.8 mph - N/A   Overcast
5:40 AM 78 °F - 72 °F 78% 29.79 in 5 mi Calm Calm - -   Scattered Clouds
5:45 AM 80.6 °F 85.4 °F 73.4 °F 79% 29.80 in 10.0 mi Calm Calm - N/A   Mostly Cloudy
6:43 AM 80.6 °F 85.4 °F 73.4 °F 79% 29.82 in 10.0 mi Calm Calm - N/A   Mostly Cloudy
7:40 AM 80.6 °F 85.4 °F 73.4 °F 79% 29.84 in 10.0 mi Calm Calm - N/A   Mostly Cloudy
8:40 AM 81 °F - 73 °F 71% 29.81 in 7 mi Calm Calm - -   Scattered Clouds
8:44 AM 84.2 °F 92.3 °F 75.2 °F 74% 29.83 in 10.0 mi Calm Calm - N/A   Scattered Clouds
9:43 AM 87.8 °F 95.6 °F 73.4 °F 62% 29.85 in 10.0 mi Calm Calm - N/A   Scattered Clouds
10:48 AM 91.4 °F 100.1 °F 73.4 °F 55% 29.86 in 10.0 mi Calm Calm - N/A   Clear
11:40 AM 93 °F - 73 °F 43% 29.81 in 7 mi East 2.2 mph - -   Scattered Clouds
11:43 AM 93.2 °F 98.8 °F 69.8 °F 46% 29.81 in 10.0 mi SSE 4.6 mph - N/A   Clear
12:41 PM 96.8 °F 101.8 °F 68.0 °F 39% 29.84 in 10.0 mi SE 4.6 mph - N/A   Clear
1:45 PM 98.6 °F 101.0 °F 64.4 °F 32% 29.82 in 10.0 mi Calm Calm - N/A   Clear
2:43 PM 100.4 °F 102.4 °F 62.6 °F 29% 29.76 in 10.0 mi SSE 4.6 mph - N/A   Partly Cloudy
2:50 PM 101 °F - 72 °F 30% 29.75 in 7 mi SE 2.2 mph - -   Scattered Clouds
3:46 PM 102.2 °F 103.6 °F 60.8 °F 26% 29.77 in 10.0 mi WSW 3.5 mph - N/A   Clear
4:51 PM 104.0 °F 105.3 °F 60.8 °F 24% 29.74 in 10.0 mi West 4.6 mph - N/A   Partly Cloudy
5:31 PM 105 °F - 66 °F 20% 29.69 in 7 mi SE 2.2 mph - -  
5:47 PM 104.0 °F 105.3 °F 60.8 °F 24% 29.71 in 10.0 mi WSW 3.5 mph - N/A   Scattered Clouds
6:53 PM 98.6 °F 109.2 °F 73.4 °F 44% 29.75 in 10.0 mi WSW 11.5 mph - N/A   Mostly Cloudy
7:44 PM 98.6 °F 109.2 °F 73.4 °F 44% 29.76 in 10.0 mi WSW 5.8 mph - N/A   Mostly Cloudy
8:40 PM 94 °F - 68 °F 33% 29.75 in 5 mi ESE 2.2 mph - -   Mostly Cloudy
8:44 PM 95.0 °F 103.2 °F 71.6 °F 47% 29.77 in 10.0 mi Calm Calm - N/A   Mostly Cloudy
9:45 PM 95.0 °F 96.0 °F 62.6 °F 34% 29.82 in 10.0 mi ENE 10.4 mph - N/A   Overcast
10:41 PM 95.0 °F 95.2 °F 60.8 °F 32% 29.83 in 10.0 mi NNW 3.5 mph - N/A   Overcast
11:40 PM 91 °F - 64 °F 31% 29.79 in 5 mi WNW 2.2 mph - -   Overcast
11:44 PM 89.6 °F 92.2 °F 66.2 °F 46% 29.78 in 10.0 mi Calm Calm - N/A   Mostly Cloudy